No particular awareness of the weather is required.    There are no Weather-warnings


Meteo18 Weather Cam more information Meteo18 Weather Cam


Thunder radar more information blitzortung!


Rain radar more information rain snow radar


Visit our other weather sites:

Template documentation
and downloads

And another site



Weather Underground History page Text

Daily Summary for September 13, 2016 Units:  Metric    English   Both
« Previous Day
Next Day »
Daily Weekly Monthly Yearly Custom
  High: Low: Average:
Temperature: -17.8 °C -7.3 °C -3.2 °C
Dew Point: -17.8 °C -11.7 °C -10.3 °C
Humidity: Humidity % 25 % 48 %
Wind Speed: 0 km/h 0 km/h 5.6 km/h
Wind Gust: 0 km/h - -
Wind:- - ESE
Pressure: 0 hPa 34039.5 hPa -
Precipitation: 0 mm    
Historical Graphs
 
 
Tabular Data for September 13, 2016
Time Temperature Dew Point Pressure Wind Wind Speed Wind Gust Humidity Rainfall Rate (Hourly)
-17.8 °C -17.8 °C 0 hPa Calm     Humidity % 0 mm
00:02 -3.5 °C -9.7 °C 34279.9 hPa NE 7.7 km/h 10.3 km/h 50 % 0 mm
00:12 -3.6 °C -9.6 °C 34269.7 hPa NE 5.1 km/h 12.9 km/h 51 % 0 mm
00:17 -3.6 °C -9.7 °C 34269.7 hPa NE 7.7 km/h 12.9 km/h 51 % 0 mm
00:22 -3.7 °C -9.6 °C 34269.7 hPa NE 10.3 km/h 12.9 km/h 52 % 0 mm
00:32 -3.9 °C -9.6 °C 34269.7 hPa NE 5.1 km/h 12.9 km/h 53 % 0 mm
00:37 -4 °C -9.7 °C 34269.7 hPa NE 5.1 km/h 12.9 km/h 53 % 0 mm
00:47 -4.2 °C -9.7 °C 34269.7 hPa NE 7.7 km/h 10.3 km/h 54 % 0 mm
00:52 -4.2 °C -9.7 °C 34269.7 hPa NE 5.1 km/h 12.9 km/h 54 % 0 mm
01:02 -4.2 °C -9.6 °C 34269.7 hPa NE 7.7 km/h 12.9 km/h 55 % 0 mm
01:07 -4.3 °C -9.7 °C 34256.2 hPa NE 7.7 km/h 12.9 km/h 55 % 0 mm
01:12 -4.3 °C -9.7 °C 34269.7 hPa NNE 5.1 km/h 12.9 km/h 55 % 0 mm
01:17 -4.3 °C -9.5 °C 34269.7 hPa NE 2.6 km/h 10.3 km/h 56 % 0 mm
01:22 -4.4 °C -9.6 °C 34256.2 hPa NE 7.7 km/h 10.3 km/h 56 % 0 mm
01:27 -4.5 °C -9.7 °C 34256.2 hPa ENE 5.1 km/h 10.3 km/h 56 % 0 mm
01:32 -4.5 °C -9.7 °C 34256.2 hPa NE 5.1 km/h 10.3 km/h 56 % 0 mm
01:37 -4.6 °C -9.6 °C 34256.2 hPa ENE 7.7 km/h 12.9 km/h 57 % 0 mm
01:42 -4.6 °C -9.6 °C 34256.2 hPa ENE 5.1 km/h 12.9 km/h 57 % 0 mm
01:47 -4.7 °C -9.7 °C 34256.2 hPa Calm   10.3 km/h 57 % 0 mm
01:52 -4.8 °C -9.6 °C 34256.2 hPa ENE 7.7 km/h 10.3 km/h 58 % 0 mm
01:57 -4.8 °C -9.6 °C 34256.2 hPa ENE 5.1 km/h 7.7 km/h 59 % 0 mm
02:02 -4.9 °C -9.7 °C 34256.2 hPa NE 5.1 km/h 7.7 km/h 59 % 0 mm
02:12 -5.2 °C -9.7 °C 34256.2 hPa NE 5.1 km/h 10.3 km/h 60 % 0 mm
02:32 -5.3 °C -9.7 °C 34256.2 hPa NE 2.6 km/h 7.7 km/h 61 % 0 mm
02:37 -5.3 °C -9.7 °C 34256.2 hPa NE 5.1 km/h 7.7 km/h 61 % 0 mm
02:42 -5.3 °C -9.5 °C 34256.2 hPa ENE 2.6 km/h 7.7 km/h 62 % 0 mm
02:47 -5.3 °C -9.6 °C 34246 hPa ENE 2.6 km/h 7.7 km/h 62 % 0 mm
02:57 -5.5 °C -9.6 °C 34246 hPa Calm   7.7 km/h 63 % 0 mm
03:02 -5.6 °C -9.7 °C 34256.2 hPa Calm   7.7 km/h 63 % 0 mm
03:12 -5.6 °C -9.6 °C 34246 hPa Calm   5.1 km/h 64 % 0 mm
03:17 -5.7 °C -9.6 °C 34246 hPa Calm   5.1 km/h 64 % 0 mm
03:22 -5.8 °C -9.7 °C 34246 hPa Calm   5.1 km/h 64 % 0 mm
03:27 -5.9 °C -9.7 °C 34246 hPa Calm   2.6 km/h 65 % 0 mm
03:32 -5.9 °C -9.7 °C 34246 hPa Calm   2.6 km/h 65 % 0 mm
03:42 -6.3 °C -9.7 °C 34246 hPa Calm     68 % 0 mm
03:47 -6.4 °C -9.8 °C 34246 hPa Calm   5.1 km/h 68 % 0 mm
03:52 -6.4 °C -9.8 °C 34246 hPa Calm   5.1 km/h 68 % 0 mm
03:57 -6.3 °C -9.7 °C 34246 hPa Calm     68 % 0 mm
04:02 -6.5 °C -9.8 °C 34246 hPa Calm     69 % 0 mm
04:12 -6.7 °C -9.7 °C 34246 hPa Calm     71 % 0 mm
04:17 -6.6 °C -9.6 °C 34246 hPa Calm     71 % 0 mm
04:22 -6.6 °C -9.6 °C 34246 hPa Calm     71 % 0 mm
04:27 -6.6 °C -9.7 °C 34246 hPa Calm     70 % 0 mm
04:32 -6.6 °C -9.7 °C 34246 hPa Calm     70 % 0 mm
04:37 -6.8 °C -9.7 °C 34246 hPa Calm     72 % 0 mm
04:42 -6.8 °C -9.7 °C 34246 hPa Calm     72 % 0 mm
04:47 -6.8 °C -9.8 °C 34246 hPa Calm     71 % 0 mm
04:52 -6.8 °C -9.7 °C 34246 hPa Calm     72 % 0 mm
04:57 -6.8 °C -9.7 °C 34246 hPa Calm     72 % 0 mm
05:02 -6.8 °C -9.7 °C 34246 hPa Calm     72 % 0 mm
05:07 -6.8 °C -9.7 °C 34246 hPa Calm     72 % 0 mm
05:12 -6.7 °C -9.7 °C 34235.8 hPa Calm     71 % 0 mm
05:17 -6.8 °C -9.8 °C 34235.8 hPa Calm     71 % 0 mm
05:22 -6.8 °C -9.7 °C 34235.8 hPa Calm     72 % 0 mm
05:27 -7 °C -9.9 °C 34235.8 hPa Calm     72 % 0 mm
05:32 -7 °C -9.8 °C 34235.8 hPa Calm     73 % 0 mm
05:37 -6.8 °C -9.7 °C 34235.8 hPa Calm     72 % 0 mm
05:42 -6.8 °C -9.8 °C 34235.8 hPa Calm     71 % 0 mm
05:47 -6.8 °C -9.7 °C 34235.8 hPa Calm     72 % 0 mm
05:52 -6.8 °C -9.8 °C 34235.8 hPa Calm     71 % 0 mm
05:57 -6.8 °C -9.8 °C 34235.8 hPa Calm     71 % 0 mm
06:02 -6.8 °C -9.7 °C 34235.8 hPa Calm     72 % 0 mm
06:07 -6.8 °C -9.7 °C 34235.8 hPa Calm     72 % 0 mm
06:12 -7 °C -9.8 °C 34235.8 hPa Calm     73 % 0 mm
06:17 -7.1 °C -9.7 °C 34235.8 hPa Calm     74 % 0 mm
06:22 -7.1 °C -9.9 °C 34235.8 hPa Calm     73 % 0 mm
06:32 -7.1 °C -9.8 °C 34235.8 hPa Calm     73 % 0 mm
06:37 -7 °C -9.8 °C 34235.8 hPa Calm     73 % 0 mm
06:42 -7 °C -9.8 °C 34235.8 hPa Calm     73 % 0 mm
06:52 -6.8 °C -9.8 °C 34235.8 hPa Calm     71 % 0 mm
07:02 -6.9 °C -9.8 °C 34235.8 hPa Calm     72 % 0 mm
07:07 -6.9 °C -9.8 °C 34235.8 hPa Calm     72 % 0 mm
07:12 -7 °C -9.9 °C 34235.8 hPa Calm     72 % 0 mm
07:17 -7.2 °C -9.9 °C 34235.8 hPa Calm     73 % 0 mm
07:22 -7.3 °C -9.8 °C 34235.8 hPa Calm     75 % 0 mm
07:27 -7.2 °C -9.8 °C 34235.8 hPa Calm     74 % 0 mm
07:32 -7.1 °C -9.9 °C 34246 hPa Calm     73 % 0 mm
07:37 -7.1 °C -9.9 °C 34246 hPa Calm     73 % 0 mm
07:42 -7.2 °C -9.9 °C 34246 hPa Calm     73 % 0 mm
07:47 -7.3 °C -10 °C 34246 hPa Calm     73 % 0 mm
07:57 -7.1 °C -9.9 °C 34246 hPa Calm     72 % 0 mm
08:02 -7 °C -10 °C 34246 hPa Calm     71 % 0 mm
08:12 -6.9 °C -9.9 °C 34246 hPa Calm     71 % 0 mm
08:17 -7 °C -10 °C 34246 hPa Calm     71 % 0 mm
08:22 -7 °C -10.1 °C 34246 hPa Calm     70 % 0 mm
08:32 -7 °C -10 °C 34246 hPa Calm     71 % 0 mm
08:37 -6.9 °C -10.1 °C 34246 hPa Calm     70 % 0 mm
08:42 -6.8 °C -10.1 °C 34246 hPa Calm     69 % 0 mm
08:47 -6.7 °C -10.1 °C 34246 hPa Calm     68 % 0 mm
08:52 -6.5 °C -9.9 °C 34246 hPa Calm     68 % 0 mm
08:57 -6.2 °C -9.8 °C 34246 hPa Calm   7.7 km/h 67 % 0 mm
09:02 -5.9 °C -9.8 °C 34246 hPa Calm   7.7 km/h 64 % 0 mm
09:07 -5.4 °C -9.8 °C 34246 hPa Calm   10.3 km/h 61 % 0 mm
09:12 -5.1 °C -9.8 °C 34246 hPa Calm   10.3 km/h 59 % 0 mm
09:17 -4.8 °C -9.8 °C 34246 hPa SSE 5.1 km/h 12.9 km/h 57 % 0 mm
09:22 -4.6 °C -9.7 °C 34246 hPa SSW 2.6 km/h 12.9 km/h 56 % 0 mm
09:27 -4.3 °C -9.8 °C 34246 hPa ESE 12.9 km/h 20.8 km/h 54 % 0 mm
09:37 -3.7 °C -9.9 °C 34246 hPa SW 2.6 km/h 15.6 km/h 50 % 0 mm
09:42 -3.6 °C -9.8 °C 34246 hPa SE 2.6 km/h 15.6 km/h 50 % 0 mm
09:47 -3.7 °C -9.9 °C 34246 hPa SSE 5.1 km/h 23.3 km/h 50 % 0 mm
09:52 -3.7 °C -10.1 °C 34246 hPa SE 15.6 km/h 23.3 km/h 49 % 0 mm
09:57 -3.7 °C -10.1 °C 34246 hPa SE 2.6 km/h 25.9 km/h 49 % 0 mm
10:07 -3.5 °C -9.9 °C 34246 hPa NE 12.9 km/h 25.9 km/h 49 % 0 mm
10:12 -3.4 °C -10 °C 34246 hPa ENE 12.9 km/h 25.9 km/h 48 % 0 mm
10:17 -3.4 °C -10 °C 34235.8 hPa SE 2.6 km/h 31.1 km/h 48 % 0 mm
10:22 -3.2 °C -10 °C 34235.8 hPa SE 15.6 km/h 31.1 km/h 47 % 0 mm
10:32 -2.9 °C -10.1 °C 34235.8 hPa ESE 5.1 km/h 31.1 km/h 45 % 0 mm
10:37 -2.6 °C -9.8 °C 34235.8 hPa East 5.1 km/h 25.9 km/h 45 % 0 mm
10:42 -2.7 °C -9.9 °C 34235.8 hPa ENE 5.1 km/h 23.3 km/h 45 % 0 mm
10:47 -2.9 °C -10.1 °C 34235.8 hPa SE 28.5 km/h 28.5 km/h 45 % 0 mm
10:52 -3.1 °C -10.1 °C 34235.8 hPa West 5.1 km/h 28.5 km/h 46 % 0 mm
10:57 -3.1 °C -10.1 °C 34235.8 hPa ENE 10.3 km/h 28.5 km/h 46 % 0 mm
11:02 -3 °C -10 °C 34235.8 hPa Calm   28.5 km/h 46 % 0 mm
11:07 -2.9 °C -9.9 °C 34235.8 hPa ESE 5.1 km/h 31.1 km/h 46 % 0 mm
11:17 -2.8 °C -10 °C 34235.8 hPa SE 2.6 km/h 31.1 km/h 45 % 0 mm
11:22 -2.9 °C -9.9 °C 34235.8 hPa ENE 5.1 km/h 23.3 km/h 46 % 0 mm
11:32 -3 °C -9.8 °C 34235.8 hPa ESE 5.1 km/h 18.2 km/h 47 % 0 mm
11:37 -2.9 °C -9.9 °C 34235.8 hPa ESE 12.9 km/h 12.9 km/h 46 % 0 mm
11:42 -2.9 °C -9.9 °C 34222.3 hPa East 7.7 km/h 23.3 km/h 46 % 0 mm
11:47 -2.6 °C -9.8 °C 34222.3 hPa SE 18.2 km/h 23.3 km/h 45 % 0 mm
11:52 -2.4 °C -9.9 °C 34222.3 hPa SSE 18.2 km/h 23.3 km/h 44 % 0 mm
11:57 -2.6 °C -9.9 °C 34222.3 hPa ESE 5.1 km/h 23.3 km/h 44 % 0 mm
12:02 -2.4 °C -9.9 °C 34212.1 hPa ENE 5.1 km/h 23.3 km/h 44 % 0 mm
12:12 -2.1 °C -9.8 °C 34212.1 hPa ESE 10.3 km/h 20.8 km/h 43 % 0 mm
12:17 -1.9 °C -9.9 °C 34212.1 hPa NW 5.1 km/h 23.3 km/h 41 % 0 mm
12:22 -1.7 °C -9.6 °C 34212.1 hPa SE 7.7 km/h 23.3 km/h 42 % 0 mm
12:27 -1.5 °C -9.6 °C 34198.6 hPa ESE 7.7 km/h 23.3 km/h 41 % 0 mm
12:32 -1.3 °C -9.7 °C 34198.6 hPa SSE 7.7 km/h 23.3 km/h 40 % 0 mm
12:37 -1.3 °C -9.6 °C 34198.6 hPa East 2.6 km/h 25.9 km/h 40 % 0 mm
12:42 -1.2 °C -9.8 °C 34198.6 hPa SE 5.1 km/h 25.9 km/h 39 % 0 mm
12:47 -1.2 °C -9.8 °C 34198.6 hPa SW 5.1 km/h 23.3 km/h 39 % 0 mm
12:52 -1 °C -9.8 °C 34198.6 hPa ESE 10.3 km/h 23.3 km/h 38 % 0 mm
12:57 -1 °C -9.8 °C 34198.6 hPa SSE 10.3 km/h 25.9 km/h 38 % 0 mm
13:02 -0.9 °C -9.9 °C 34198.6 hPa East 23.3 km/h 31.1 km/h 37 % 0 mm
13:07 -0.8 °C -10.2 °C 34188.4 hPa SSE 12.9 km/h 31.1 km/h 36 % 0 mm
13:17 -0.8 °C -10.1 °C 34188.4 hPa ESE 2.6 km/h 25.9 km/h 36 % 0 mm
13:27 -0.9 °C -9.9 °C 34178.3 hPa East 5.1 km/h 25.9 km/h 37 % 0 mm
13:32 -0.8 °C -10.1 °C 34178.3 hPa SW 5.1 km/h 23.3 km/h 36 % 0 mm
13:37 -0.7 °C -10.1 °C 34178.3 hPa East 7.7 km/h 23.3 km/h 36 % 0 mm
13:42 -0.8 °C -9.9 °C 34178.3 hPa SE 2.6 km/h 23.3 km/h 37 % 0 mm
13:47 -0.8 °C -10.3 °C 34178.3 hPa SE 7.7 km/h 23.3 km/h 35 % 0 mm
13:52 -0.7 °C -10.1 °C 34178.3 hPa East 10.3 km/h 23.3 km/h 36 % 0 mm
13:57 -0.4 °C -10.3 °C 34164.7 hPa ESE 2.6 km/h 20.8 km/h 34 % 0 mm
14:02 -0.1 °C -10.5 °C 34164.7 hPa SSW 12.9 km/h 25.9 km/h 32 % 0 mm
14:07 -0.2 °C -10.3 °C 34164.7 hPa ENE 10.3 km/h 28.5 km/h 33 % 0 mm
14:17 -0.1 °C -10.4 °C 34154.6 hPa East 18.2 km/h 28.5 km/h 32 % 0 mm
14:22 -0.1 °C -10.4 °C 34154.6 hPa ESE 7.7 km/h 23.3 km/h 32 % 0 mm
14:32 0.1 °C -10.1 °C 34154.6 hPa SSE 2.6 km/h 23.3 km/h 33 % 0 mm
14:37 0.1 °C -10.4 °C 34144.4 hPa South 7.7 km/h 25.9 km/h 32 % 0 mm
14:42 0.3 °C -10.4 °C 34144.4 hPa NE 2.6 km/h 25.9 km/h 31 % 0 mm
14:47 0.4 °C -10.6 °C 34144.4 hPa SW 2.6 km/h 25.9 km/h 30 % 0 mm
14:52 0.6 °C -10.5 °C 34144.4 hPa SE 5.1 km/h 23.3 km/h 30 % 0 mm
14:57 0.3 °C -10.9 °C 34144.4 hPa East 7.7 km/h 23.3 km/h 29 % 0 mm
15:02 0.4 °C -10.9 °C 34144.4 hPa WSW 12.9 km/h 25.9 km/h 29 % 0 mm
15:07 0.5 °C -11.1 °C 34144.4 hPa South 12.9 km/h 28.5 km/h 28 % 0 mm
15:12 0.5 °C -11.1 °C 34144.4 hPa ESE 25.9 km/h 31.1 km/h 28 % 0 mm
15:17 0.6 °C -11.1 °C 34144.4 hPa ESE 5.1 km/h 31.1 km/h 28 % 0 mm
15:22 0.6 °C -11.1 °C 34130.9 hPa ESE 12.9 km/h 28.5 km/h 28 % 0 mm
15:32 0.9 °C -11.1 °C 34130.9 hPa WSW 5.1 km/h 20.8 km/h 27 % 0 mm
15:37 0.9 °C -11.1 °C 34130.9 hPa ENE 5.1 km/h 18.2 km/h 27 % 0 mm
15:47 0.9 °C -10.4 °C 34120.7 hPa SE 7.7 km/h 28.5 km/h 29 % 0 mm
15:52 0.9 °C -10.4 °C 34120.7 hPa SSE 15.6 km/h 28.5 km/h 29 % 0 mm
15:57 0.9 °C -10.8 °C 34120.7 hPa ENE 10.3 km/h 28.5 km/h 28 % 0 mm
16:02 0.7 °C -11 °C 34120.7 hPa ESE 12.9 km/h 23.3 km/h 28 % 0 mm
16:07 0.8 °C -10.9 °C 34107.2 hPa ESE 20.8 km/h 23.3 km/h 28 % 0 mm
16:12 0.7 °C -11.3 °C 34107.2 hPa South 12.9 km/h 23.3 km/h 27 % 0 mm
16:17 0.7 °C -11.3 °C 34107.2 hPa East 12.9 km/h 25.9 km/h 27 % 0 mm
16:22 0.8 °C -11.2 °C 34107.2 hPa SSE 7.7 km/h 25.9 km/h 27 % 0 mm
16:27 0.8 °C -11.2 °C 34107.2 hPa ESE 7.7 km/h 25.9 km/h 27 % 0 mm
16:32 0.7 °C -11.3 °C 34107.2 hPa SE 18.2 km/h 23.3 km/h 27 % 0 mm
16:37 0.7 °C -11.3 °C 34097 hPa ESE 5.1 km/h 25.9 km/h 27 % 0 mm
16:42 0.7 °C -11.2 °C 34097 hPa East 2.6 km/h 25.9 km/h 27 % 0 mm
16:47 0.8 °C -11.2 °C 34097 hPa SSW 15.6 km/h 23.3 km/h 27 % 0 mm
16:52 0.9 °C -11.4 °C 34097 hPa SE 10.3 km/h 28.5 km/h 26 % 0 mm
16:57 0.9 °C -11.4 °C 34086.9 hPa SE 12.9 km/h 28.5 km/h 26 % 0 mm
17:02 0.9 °C -11.4 °C 34086.9 hPa WSW 7.7 km/h 28.5 km/h 26 % 0 mm
17:07 0.9 °C -11.4 °C 34086.9 hPa SE 10.3 km/h 28.5 km/h 26 % 0 mm
17:12 1 °C -11.3 °C 34086.9 hPa SW 10.3 km/h 33.6 km/h 26 % 0 mm
17:17 1 °C -11.7 °C 34086.9 hPa SSE 7.7 km/h 33.6 km/h 25 % 0 mm
17:22 0.9 °C -11.4 °C 34086.9 hPa SSE 7.7 km/h 33.6 km/h 26 % 0 mm
17:32 0.4 °C -11.5 °C 34086.9 hPa SE 12.9 km/h 25.9 km/h 27 % 0 mm
17:37 0.4 °C -11.5 °C 34086.9 hPa ENE 2.6 km/h 25.9 km/h 27 % 0 mm
17:42 0.5 °C -11.4 °C 34086.9 hPa SSW 10.3 km/h 28.5 km/h 27 % 0 mm
17:52 0.5 °C -11.4 °C 34073.3 hPa SW 10.3 km/h 28.5 km/h 27 % 0 mm
17:57 0.5 °C -11.4 °C 34073.3 hPa ESE 10.3 km/h 15.6 km/h 27 % 0 mm
18:02 0.7 °C -11 °C 34073.3 hPa South 2.6 km/h 18.2 km/h 28 % 0 mm
18:07 0.7 °C -11.2 °C 34073.3 hPa SSE 2.6 km/h 18.2 km/h 27 % 0 mm
18:12 0.7 °C -11.2 °C 34073.3 hPa SSE 10.3 km/h 20.8 km/h 27 % 0 mm
18:17 0.7 °C -11.2 °C 34073.3 hPa ENE 2.6 km/h 25.9 km/h 27 % 0 mm
18:22 0.7 °C -11.2 °C 34073.3 hPa SSW 5.1 km/h 25.9 km/h 27 % 0 mm
18:27 0.8 °C -11.2 °C 34063.2 hPa SSE 5.1 km/h 25.9 km/h 27 % 0 mm
18:32 0.7 °C -10.9 °C 34063.2 hPa SW 5.1 km/h 25.9 km/h 28 % 0 mm
18:37 0.7 °C -10.9 °C 34063.2 hPa SW 2.6 km/h 23.3 km/h 28 % 0 mm
18:42 0.7 °C -11 °C 34063.2 hPa Calm   23.3 km/h 28 % 0 mm
18:47 0.6 °C -11.1 °C 34063.2 hPa East 5.1 km/h 18.2 km/h 28 % 0 mm
18:52 0.5 °C -10.8 °C 34063.2 hPa SE 2.6 km/h 18.2 km/h 29 % 0 mm
18:57 0.5 °C -10.8 °C 34063.2 hPa ESE 2.6 km/h 15.6 km/h 29 % 0 mm
19:02 0.4 °C -10.9 °C 34049.6 hPa East 10.3 km/h 15.6 km/h 29 % 0 mm
19:12 -0.1 °C -10.5 °C 34049.6 hPa ENE 10.3 km/h 18.2 km/h 32 % 0 mm
19:17 -0.3 °C -10.4 °C 34049.6 hPa ENE 10.3 km/h 20.8 km/h 33 % 0 mm
19:22 -0.4 °C -10.3 °C 34049.6 hPa East 15.6 km/h 20.8 km/h 34 % 0 mm
19:32 -0.7 °C -10.3 °C 34049.6 hPa ESE 18.2 km/h 20.8 km/h 35 % 0 mm
19:37 -0.8 °C -10.1 °C 34049.6 hPa ENE 10.3 km/h 20.8 km/h 36 % 0 mm
19:42 -0.9 °C -10.2 °C 34049.6 hPa ENE 7.7 km/h 18.2 km/h 36 % 0 mm
19:52 -1.2 °C -10.2 °C 34039.5 hPa ENE 10.3 km/h 20.8 km/h 37 % 0 mm
20:12 -1.5 °C -10.3 °C 34049.6 hPa SE 12.9 km/h 23.3 km/h 38 % 0 mm
20:22 -1.8 °C -10.3 °C 34049.6 hPa ENE 5.1 km/h 20.8 km/h 39 % 0 mm
20:27 -1.8 °C -10.1 °C 34049.6 hPa East 7.7 km/h 18.2 km/h 40 % 0 mm
20:32 -2 °C -10.3 °C 34049.6 hPa East 10.3 km/h 15.6 km/h 40 % 0 mm
20:37 -2.1 °C -10.3 °C 34049.6 hPa East 15.6 km/h 20.8 km/h 40 % 0 mm
20:42 -2.1 °C -10.3 °C 34049.6 hPa East 15.6 km/h 20.8 km/h 40 % 0 mm
20:47 -2.1 °C -10.6 °C 34049.6 hPa East 15.6 km/h 25.9 km/h 39 % 0 mm
20:52 -2.1 °C -10.6 °C 34049.6 hPa ESE 10.3 km/h 25.9 km/h 39 % 0 mm
20:57 -2.1 °C -10.6 °C 34063.2 hPa East 12.9 km/h 28.5 km/h 39 % 0 mm
21:07 -2.3 °C -10.5 °C 34063.2 hPa ENE 15.6 km/h 23.3 km/h 40 % 0 mm
21:12 -2.3 °C -10.6 °C 34063.2 hPa East 15.6 km/h 23.3 km/h 40 % 0 mm
21:17 -2.3 °C -10.5 °C 34063.2 hPa East 10.3 km/h 28.5 km/h 40 % 0 mm
21:22 -2.3 °C -10.6 °C 34063.2 hPa ENE 5.1 km/h 28.5 km/h 40 % 0 mm
21:27 -2.4 °C -10.7 °C 34073.3 hPa East 2.6 km/h 28.5 km/h 40 % 0 mm
21:32 -2.6 °C -10.8 °C 34073.3 hPa Calm   18.2 km/h 40 % 0 mm
21:37 -2.8 °C -10.8 °C 34073.3 hPa East 2.6 km/h 18.2 km/h 41 % 0 mm
21:42 -2.9 °C -10.7 °C 34073.3 hPa ESE 2.6 km/h 18.2 km/h 42 % 0 mm
21:47 -3 °C -10.8 °C 34073.3 hPa Calm   10.3 km/h 42 % 0 mm
21:52 -3.1 °C -10.8 °C 34073.3 hPa Calm   12.9 km/h 42 % 0 mm
22:02 -3.2 °C -10.7 °C 34086.9 hPa SE 7.7 km/h 23.3 km/h 43 % 0 mm
22:07 -3.2 °C -10.8 °C 34086.9 hPa SE 2.6 km/h 18.2 km/h 43 % 0 mm
22:12 -3.2 °C -10.6 °C 34086.9 hPa SSE 2.6 km/h 15.6 km/h 44 % 0 mm
22:17 -3.3 °C -10.6 °C 34086.9 hPa ESE 5.1 km/h 23.3 km/h 44 % 0 mm
22:22 -3.3 °C -10.6 °C 34086.9 hPa ESE 5.1 km/h 23.3 km/h 44 % 0 mm
22:32 -3.3 °C -10.7 °C 34097 hPa East 5.1 km/h 18.2 km/h 44 % 0 mm
22:37 -3.3 °C -10.7 °C 34097 hPa East 10.3 km/h 23.3 km/h 44 % 0 mm
22:42 -3.3 °C -10.7 °C 34086.9 hPa East 5.1 km/h 23.3 km/h 44 % 0 mm
22:47 -3.3 °C -10.7 °C 34086.9 hPa East 2.6 km/h 23.3 km/h 44 % 0 mm
22:52 -3.4 °C -10.7 °C 34086.9 hPa SE 10.3 km/h 23.3 km/h 44 % 0 mm
22:57 -3.4 °C -10.7 °C 34086.9 hPa SE 7.7 km/h 23.3 km/h 44 % 0 mm
23:02 -3.3 °C -10.7 °C 34086.9 hPa ESE 12.9 km/h 25.9 km/h 44 % 0 mm
23:07 -3.4 °C -10.7 °C 34086.9 hPa NE 5.1 km/h 25.9 km/h 44 % 0 mm
23:12 -3.5 °C -10.6 °C 34086.9 hPa ENE 2.6 km/h 25.9 km/h 45 % 0 mm
23:17 -3.6 °C -10.7 °C 34086.9 hPa ENE 2.6 km/h 18.2 km/h 45 % 0 mm
23:22 -3.7 °C -10.7 °C 34086.9 hPa SE 5.1 km/h 15.6 km/h 46 % 0 mm
23:32 -3.9 °C -10.6 °C 34097 hPa South 10.3 km/h 20.8 km/h 47 % 0 mm
23:37 -3.9 °C -10.7 °C 34107.2 hPa SE 2.6 km/h 20.8 km/h 47 % 0 mm
23:42 -4 °C -10.7 °C 34107.2 hPa SSE 2.6 km/h 18.2 km/h 47 % 0 mm
23:47 -4.1 °C -10.8 °C 34107.2 hPa SSE 10.3 km/h 18.2 km/h 47 % 0 mm
23:52 -4.1 °C -10.8 °C 34107.2 hPa SSE 7.7 km/h 20.8 km/h 47 % 0 mm
Meteo18
Compliments of Weather Underground - 4 mb

Script developed by  Jim McMurry - jmcmurry@mwt.net Adapted for the template by  Wim van der Kuil - Leuven-Template.eu

You find our weather info also at:

European Weather Network

Weather Underground

Equipment we use:

Weather-station
Davis Vue

Weather-program
Meteobridge

Weather-server
Raspberry PI 2 B+

Provider
1 and 1

Davis Vue

Meteobridge

Raspberry PI 2 B+

1 and 1